Wind_Speed
25 25 26 26 27 26 27 28 28 28 28 28 28 28 28 28 29 28 28 28 28 29 29 28 28 28 28 28 28 28 28 28 29 30 30 31 30 29 29 28 28 28 27
25 26 26 26 27 28 29 29 29 29 28 28 28 29 29 29 28 28 29 29 29 29 29 29 29 29 29 29 29 30 29 30 30 31 31 32 32 31 31 29 29 28 28
27 27 27 27 28 28 29 29 29 29 29 29 29 29 30 30 29 29 29 29 30 29 29 29 30 30 30 30 30 30 31 31 31 31 31 32 32 32 32 31 29 28 28
27 28 28 28 28 28 28 29 29 29 30 30 30 30 30 30 31 30 30 31 30 29 29 30 31 32 31 31 31 31 30 31 31 31 31 31 32 33 33 32 31 30 30
27 27 27 28 28 28 28 29 29 30 30 30 30 30 30 30 30 31 30 31 31 31 30 29 30 32 32 32 32 32 32 31 31 31 31 31 32 32 33 33 33 32 32
26 27 27 27 28 28 28 29 29 29 30 30 30 30 30 30 30 30 31 31 31 32 32 30 30 31 32 32 31 31 32 32 31 31 30 30 31 32 34 33 34 34 34
26 27 28 27 28 28 29 29 29 29 29 30 30 30 30 30 30 30 30 31 31 31 32 31 30 30 30 31 31 30 31 32 31 31 31 31 31 31 32 35 35 35 35
26 27 27 28 29 29 29 30 29 29 30 30 30 30 29 29 29 30 30 29 29 30 31 30 30 30 29 31 31 30 30 31 31 31 31 31 31 31 32 33 35 35 36
26 27 27 28 29 30 29 29 29 30 30 30 31 31 30 28 27 28 29 29 29 29 29 28 29 29 29 31 31 30 29 30 32 32 31 32 32 31 32 31 31 33 34
26 26 27 28 29 29 29 29 29 29 30 30 30 30 29 28 27 26 26 26 27 27 27 27 28 27 27 29 30 31 30 30 31 31 31 32 32 32 31 32 31 32 34
26 27 28 28 28 28 28 28 28 28 29 29 28 28 28 28 28 27 25 25 26 25 25 26 26 27 27 28 29 31 31 31 31 31 32 32 33 33 32 33 32 32 34
26 27 27 27 27 27 27 26 26 27 28 27 27 27 27 28 28 26 25 24 24 24 24 24 24 25 26 26 28 29 30 31 31 32 33 34 34 34 33 33 34 34 34
25 26 26 26 26 26 26 26 26 26 27 27 26 27 28 28 26 26 25 24 23 23 23 23 24 24 26 25 25 27 28 30 31 32 32 34 35 36 35 34 35 35 35
24 24 25 25 26 26 26 26 27 27 27 26 26 27 28 27 25 25 24 23 21 21 21 22 23 24 25 25 24 25 27 28 30 32 32 32 34 35 35 35 35 36 37
23 23 24 25 25 26 26 26 26 26 26 26 26 26 27 26 25 24 23 22 21 21 20 22 22 23 23 24 23 25 26 27 28 30 32 32 33 33 34 34 35 36 36
21 21 22 23 24 25 26 26 26 26 25 25 25 25 25 24 23 22 21 21 21 21 20 21 22 23 23 23 23 25 25 26 27 28 30 31 32 33 33 34 34 35 36
20 20 21 22 23 24 24 25 25 24 24 25 25 25 24 24 23 22 22 21 21 21 21 21 22 22 23 23 24 25 25 26 26 26 27 28 29 31 32 34 34 35 36
20 21 21 22 23 24 24 25 25 24 24 24 24 24 24 23 22 22 21 21 20 20 20 20 21 22 23 23 24 25 25 26 26 25 26 27 27 29 31 33 34 35 35
19 20 22 22 23 24 24 24 24 24 24 24 24 24 23 22 21 21 21 20 20 20 21 21 21 21 21 22 23 24 24 25 25 25 25 26 26 27 28 31 33 34 35
20 21 21 22 23 23 23 23 23 23 23 23 22 22 22 22 22 21 21 20 20 21 21 21 21 21 21 22 22 23 23 23 23 24 25 26 26 27 27 29 31 32 33
20 21 21 22 22 22 23 23 22 22 22 22 22 22 22 23 23 23 22 21 21 21 21 21 21 21 21 22 22 23 23 23 24 24 25 25 26 27 28 29 29 30 32
20 21 21 21 22 22 22 22 22 22 22 23 23 23 22 23 23 23 23 22 22 22 21 21 21 21 21 21 22 22 23 23 24 24 24 24 25 25 26 27 28 29 30
20 20 21 21 21 22 22 21 22 22 23 23 23 23 23 23 24 23 23 23 23 22 22 21 21 21 21 21 22 22 21 22 22 23 24 23 24 24 25 25 26 27 28
19 19 20 21 21 21 22 22 22 23 23 23 23 23 24 24 25 25 24 23 23 23 23 22 22 22 22 23 22 22 21 21 22 23 24 23 24 24 24 24 25 26 27
18 18 20 21 21 21 22 22 23 23 23 24 24 24 25 25 25 25 24 22 22 22 23 23 23 23 23 22 22 21 22 22 21 22 23 23 24 24 24 24 25 26 26
17 18 19 20 21 21 21 22 23 23 24 25 25 25 25 25 25 24 24 23 23 22 23 23 23 23 22 22 22 22 22 22 22 22 23 24 24 24 25 26 26 26 26
Wind_Direction
301 302 300 300 300 298 297 295 293 292 290 289 288 288 287 285 282 281 279 276 275 273 271 269 267 264 262 260 258 256 255 254 253 251 250 247 247 246 245 245 244 242 243
302 303 300 300 300 299 298 296 295 292 292 291 289 289 287 286 283 280 280 277 275 273 271 269 267 264 262 261 260 258 256 255 254 253 251 249 246 245 244 245 244 242 242
301 302 301 300 299 299 298 298 295 292 292 293 291 289 288 286 283 280 279 278 275 272 271 269 266 264 261 261 261 260 258 256 255 255 254 251 248 246 244 243 243 242 242
299 301 300 299 299 299 298 298 297 296 293 293 293 291 289 287 286 282 279 276 274 273 272 268 264 264 262 262 262 262 260 256 254 255 254 252 248 246 244 242 242 242 241
298 300 300 300 299 299 298 298 299 298 295 294 294 292 291 289 287 284 280 276 275 273 272 268 265 263 261 261 262 261 259 256 255 254 254 252 248 247 245 242 243 243 242
298 300 301 301 301 301 301 300 299 298 297 296 294 293 292 291 290 286 282 278 276 274 272 270 269 267 263 261 260 259 258 257 257 255 254 251 248 246 245 243 243 244 243
298 301 301 301 302 303 302 301 301 299 298 297 297 296 296 293 289 286 282 279 277 276 274 272 272 268 264 261 261 259 258 256 256 255 252 250 249 247 246 245 244 243 244
300 301 303 303 305 306 304 302 301 301 300 299 299 299 298 295 292 288 285 281 277 275 275 272 270 268 264 261 261 260 259 257 256 255 252 250 249 248 247 247 244 244 244
301 303 304 304 305 305 304 302 300 299 299 300 301 301 300 297 295 293 289 285 281 278 275 273 271 269 264 261 260 258 260 258 256 255 253 250 250 249 249 247 244 245 244
301 302 303 304 305 306 306 304 303 301 302 302 302 302 300 299 297 295 291 287 285 281 275 273 271 269 265 263 260 258 258 256 255 254 252 249 249 250 250 247 247 247 245
303 302 304 305 306 307 308 307 305 304 305 305 304 303 301 300 301 298 293 288 284 281 278 274 271 268 266 265 261 258 256 256 255 254 251 249 248 250 250 248 247 247 247
302 304 307 307 307 308 307 307 306 307 308 307 306 306 306 304 303 300 295 289 284 280 278 274 271 270 270 266 263 260 258 257 255 254 251 249 249 249 249 249 247 248 247
302 303 305 306 306 306 307 307 307 308 309 308 307 306 307 305 302 300 295 290 284 281 277 276 275 273 271 269 266 264 263 260 257 255 253 251 250 249 248 248 248 248 247
301 302 303 304 306 307 309 309 308 309 308 308 307 307 306 305 303 300 295 290 286 281 277 276 277 276 273 271 268 267 265 263 260 257 255 253 252 251 248 247 247 247 247
304 305 306 307 308 308 309 311 310 309 309 309 308 308 307 307 304 302 298 292 289 283 279 279 278 275 273 272 269 267 267 266 262 257 255 253 252 250 249 248 248 248 248
307 308 310 310 311 311 312 314 313 312 311 310 309 309 309 308 306 305 302 297 293 286 281 280 280 278 273 270 270 267 267 266 265 262 258 255 252 250 249 249 249 248 249
307 308 310 311 313 314 315 316 315 314 313 311 310 309 309 308 307 305 302 299 296 291 285 282 283 281 277 273 272 270 269 267 267 265 262 258 254 251 251 250 249 249 248
306 309 310 313 314 314 315 317 316 314 314 313 312 311 309 308 307 306 302 299 297 293 290 289 286 284 280 277 273 272 270 269 267 266 262 258 257 253 251 251 251 249 249
312 313 314 315 316 317 317 317 318 316 315 315 314 315 312 309 308 306 303 300 298 297 294 292 290 286 283 279 274 272 271 272 269 266 263 260 258 256 253 251 251 250 250
313 315 316 319 320 320 321 321 320 319 319 318 317 316 315 312 311 306 303 300 297 297 294 292 292 288 284 283 279 275 273 273 271 268 263 260 258 258 256 253 252 251 250
313 317 320 322 323 322 323 324 323 323 322 322 320 319 317 315 312 309 306 302 300 298 295 291 292 291 287 286 284 277 274 272 270 268 265 261 260 259 258 256 254 253 252
315 319 322 323 324 325 325 325 324 323 322 321 321 320 318 317 315 311 308 305 302 299 295 292 292 291 288 288 285 280 276 272 269 268 266 264 263 260 260 258 256 254 252
318 321 324 325 325 326 327 327 326 325 324 324 323 322 320 319 316 312 308 305 303 301 299 296 294 292 289 288 286 283 279 274 272 270 268 266 264 262 261 260 258 256 256
319 321 325 327 328 328 328 328 327 327 326 326 325 323 320 319 318 315 311 308 304 301 300 297 293 290 289 287 286 282 280 277 274 272 269 267 264 263 263 262 261 260 258
323 323 326 328 329 329 328 328 328 327 327 326 324 323 321 321 320 318 315 311 308 302 298 298 295 291 288 286 282 282 279 277 275 273 270 267 266 264 263 262 263 261 259
326 326 328 331 331 330 330 329 329 329 328 328 327 325 323 322 322 319 316 312 310 305 300 296 294 290 287 286 284 283 282 279 275 272 270 268 266 264 264 262 261 260 260
Height
5840 5838 5836 5834 5832 5830 5829 5828 5826 5824 5823 5821 5820 5819 5817 5816 5815 5814 5814 5814 5813 5813 5813 5814 5814 5814 5815 5816 5817 5818 5820 5821 5822 5824 5826 5828 5830 5832 5834 5836 5838 5840 5843
5835 5833 5831 5829 5827 5825 5823 5822 5820 5818 5816 5814 5813 5812 5811 5809 5808 5807 5806 5805 5806 5806 5806 5806 5807 5807 5808 5809 5810 5811 5813 5814 5815 5817 5818 5820 5822 5825 5827 5830 5832 5834 5836
5830 5828 5825 5824 5822 5820 5818 5816 5813 5811 5810 5808 5806 5804 5803 5802 5801 5800 5799 5797 5798 5798 5798 5798 5799 5799 5800 5801 5802 5804 5805 5806 5808 5809 5811 5812 5815 5818 5820 5823 5825 5828 5830
5824 5823 5821 5818 5816 5814 5812 5810 5807 5805 5803 5801 5799 5797 5795 5794 5793 5792 5791 5790 5790 5790 5790 5790 5790 5791 5792 5793 5795 5796 5797 5798 5800 5802 5803 5805 5807 5810 5813 5815 5818 5821 5823
5819 5817 5815 5813 5811 5808 5806 5803 5801 5799 5797 5794 5792 5790 5788 5786 5785 5783 5782 5782 5782 5782 5781 5781 5781 5782 5783 5785 5786 5787 5789 5790 5792 5794 5796 5797 5799 5802 5805 5808 5811 5814 5817
5814 5812 5810 5807 5805 5803 5800 5797 5794 5792 5790 5787 5785 5783 5781 5779 5777 5776 5774 5773 5773 5773 5773 5773 5773 5773 5775 5776 5777 5779 5780 5782 5784 5785 5787 5789 5792 5794 5797 5800 5803 5806 5809
5809 5807 5805 5802 5799 5797 5793 5791 5788 5786 5783 5780 5778 5776 5774 5771 5769 5768 5766 5765 5764 5764 5764 5764 5765 5765 5766 5768 5769 5770 5772 5773 5775 5777 5779 5781 5783 5786 5789 5792 5795 5798 5801
5804 5801 5799 5796 5793 5790 5788 5785 5782 5780 5777 5774 5771 5769 5767 5765 5762 5760 5758 5757 5756 5756 5755 5756 5756 5756 5758 5759 5761 5762 5764 5765 5767 5769 5770 5773 5775 5777 5780 5783 5786 5790 5793
5799 5796 5794 5791 5788 5785 5782 5779 5776 5774 5771 5768 5764 5761 5759 5757 5755 5753 5750 5748 5747 5747 5747 5747 5748 5747 5749 5751 5752 5753 5755 5756 5758 5760 5762 5764 5766 5769 5772 5775 5778 5781 5784
5794 5791 5788 5785 5782 5779 5776 5773 5770 5767 5764 5761 5758 5754 5751 5748 5746 5745 5743 5741 5739 5739 5739 5739 5740 5740 5741 5742 5744 5745 5746 5748 5749 5752 5753 5756 5758 5761 5763 5766 5769 5772 5776
5788 5785 5782 5779 5776 5773 5770 5767 5764 5761 5758 5754 5751 5748 5745 5742 5739 5737 5735 5734 5733 5732 5732 5732 5732 5732 5733 5734 5735 5736 5738 5739 5741 5742 5745 5747 5749 5752 5755 5758 5761 5764 5767
5782 5780 5777 5774 5771 5768 5765 5762 5758 5755 5752 5748 5744 5742 5739 5736 5733 5730 5728 5727 5726 5725 5725 5724 5725 5725 5725 5725 5726 5728 5729 5730 5732 5733 5735 5738 5741 5744 5747 5750 5753 5756 5759
5777 5774 5772 5769 5766 5763 5760 5756 5753 5750 5746 5742 5739 5736 5732 5729 5726 5723 5721 5720 5719 5719 5718 5718 5717 5717 5718 5718 5719 5720 5721 5722 5723 5725 5727 5729 5732 5735 5738 5741 5744 5747 5750
5771 5769 5766 5764 5760 5757 5754 5751 5748 5744 5741 5737 5733 5730 5726 5723 5720 5717 5715 5713 5713 5712 5711 5711 5711 5710 5711 5711 5711 5712 5713 5714 5715 5716 5718 5720 5722 5725 5728 5732 5735 5738 5741
5766 5763 5761 5758 5755 5752 5749 5746 5742 5739 5735 5731 5728 5724 5721 5717 5714 5711 5709 5707 5706 5706 5706 5705 5704 5704 5704 5704 5704 5705 5705 5706 5707 5708 5709 5711 5713 5716 5719 5722 5725 5728 5731
5761 5759 5756 5753 5750 5747 5744 5740 5737 5733 5730 5726 5723 5719 5715 5712 5709 5706 5704 5702 5700 5699 5699 5698 5697 5697 5697 5697 5697 5697 5697 5698 5698 5699 5701 5702 5705 5707 5710 5713 5716 5718 5721
5757 5754 5751 5748 5746 5742 5739 5735 5732 5728 5724 5721 5717 5714 5710 5707 5704 5701 5699 5697 5695 5693 5693 5692 5691 5690 5690 5690 5690 5690 5690 5690 5691 5691 5692 5694 5696 5698 5701 5703 5706 5708 5711
5752 5750 5747 5744 5741 5738 5734 5730 5727 5723 5719 5715 5712 5708 5705 5702 5699 5696 5694 5692 5690 5688 5687 5686 5685 5684 5683 5683 5682 5682 5682 5682 5683 5684 5685 5686 5687 5689 5691 5693 5696 5698 5701
5747 5745 5742 5739 5736 5733 5729 5725 5722 5718 5714 5710 5707 5704 5700 5697 5694 5691 5689 5687 5685 5683 5681 5680 5679 5678 5677 5676 5675 5675 5675 5675 5675 5676 5677 5677 5679 5680 5682 5683 5685 5688 5691
5743 5741 5738 5735 5731 5728 5724 5721 5717 5713 5709 5706 5702 5699 5696 5692 5689 5687 5684 5682 5680 5678 5676 5674 5673 5671 5670 5669 5668 5668 5668 5668 5668 5668 5669 5670 5670 5671 5673 5674 5677 5679 5681
5739 5737 5734 5730 5727 5724 5720 5717 5713 5709 5705 5702 5698 5695 5691 5688 5685 5682 5679 5677 5674 5672 5670 5668 5667 5665 5664 5662 5662 5661 5660 5660 5660 5661 5661 5662 5663 5663 5664 5666 5667 5669 5672
5736 5733 5730 5727 5724 5720 5716 5712 5709 5705 5702 5698 5694 5690 5687 5684 5680 5677 5674 5671 5669 5666 5664 5662 5660 5658 5657 5656 5655 5654 5653 5653 5653 5654 5654 5654 5655 5656 5656 5657 5658 5660 5662
5732 5729 5727 5724 5720 5717 5713 5709 5705 5702 5698 5694 5690 5686 5682 5679 5675 5671 5668 5665 5662 5660 5658 5656 5654 5652 5651 5649 5648 5647 5646 5646 5646 5646 5646 5647 5647 5648 5649 5649 5650 5651 5653
5729 5726 5723 5720 5717 5713 5709 5706 5702 5698 5694 5690 5686 5682 5678 5674 5669 5665 5662 5659 5656 5654 5652 5650 5648 5646 5644 5643 5642 5641 5640 5639 5639 5639 5639 5639 5640 5640 5641 5641 5642 5643 5645
5725 5723 5720 5717 5714 5710 5706 5702 5698 5694 5690 5686 5682 5678 5674 5669 5665 5660 5657 5653 5651 5648 5645 5643 5641 5639 5638 5636 5635 5634 5633 5632 5632 5632 5631 5632 5632 5633 5633 5634 5634 5635 5636
5723 5720 5717 5714 5710 5707 5703 5699 5695 5691 5686 5682 5677 5673 5669 5664 5660 5655 5651 5647 5645 5642 5639 5637 5635 5633 5631 5629 5628 5627 5626 5625 5625 5625 5624 5624 5624 5625 5626 5626 5627 5627 5628